Location: �clusier
(49.9361°N, 2.7869°E)
Time: 12:49:43
(UTC+00:00)

ATLAS CENTAUR R/B - Visible Passes

Search period start: 22 October 2021 00:00
Search period end: 01 November 2021 00:00
Orbit: 459 x 683 km, 64.7° (Epoch: 15 October)

Date Brightness Start Highest point End Pass type
(mag) Time Alt. Az. Time Alt. Az. Time Alt. Az.
22 Oct 2.3 03:50:09 41° N 03:50:09 41° N 03:53:24 10° NE visible
22 Oct 3.3 05:26:18 11° WNW 05:28:57 17° NNW 05:31:56 10° NNE visible
23 Oct 4.8 02:16:04 10° NE 02:16:04 10° NE 02:16:05 10° NE visible
23 Oct 2.6 03:52:12 33° N 03:52:12 33° N 03:55:13 10° NNE visible
23 Oct 3.5 05:28:31 10° NW 05:31:05 15° NNW 05:33:46 10° NNE visible
24 Oct 4.8 02:18:04 10° NE 02:18:04 10° NE 02:18:06 10° NE visible
24 Oct 3.0 03:54:12 27° N 03:54:12 27° N 03:56:59 10° NNE visible
24 Oct 3.6 05:30:56 10° NW 05:33:15 14° NNW 05:35:38 10° NNE visible
25 Oct 4.8 02:20:01 10° NE 02:20:01 10° NE 02:20:02 10° NE visible
25 Oct 3.2 03:56:09 23° N 03:56:09 23° N 03:58:46 10° NNE visible
25 Oct 3.7 05:33:19 10° NW 05:35:25 13° N 05:37:36 10° NNE visible
26 Oct 3.4 03:58:05 20° N 03:58:05 20° N 04:00:32 10° NNE visible
26 Oct 3.8 05:35:36 10° NNW 05:37:36 13° N 05:39:38 10° NNE visible
27 Oct 3.6 03:59:58 17° N 03:59:58 17° N 04:02:19 10° NNE visible
27 Oct 3.8 05:37:46 10° NNW 05:39:47 13° N 05:41:50 10° NNE visible
28 Oct 3.7 04:01:51 16° N 04:01:51 16° N 04:04:06 10° NNE visible
28 Oct 3.9 05:39:48 10° NNW 05:41:58 13° N 05:44:09 10° NE visible
29 Oct 3.8 04:03:42 14° N 04:03:42 14° N 04:05:56 10° NNE visible
29 Oct 3.9 05:41:44 10° NNW 05:44:07 14° N 05:46:34 10° NE visible
30 Oct 3.9 04:05:33 13° N 04:05:34 13° N 04:07:51 10° NNE visible
30 Oct 3.9 05:43:34 10° NNW 05:46:16 15° NNE 05:49:01 10° NE visible
31 Oct 3.9 04:07:24 13° N 04:07:44 13° N 04:09:50 10° NNE visible
31 Oct 3.8 05:45:22 10° NNW 05:48:23 17° NNE 05:51:30 10° ENE visible
